Content
SEND FEEDBACK

Daily
Averages
Monthly
Summary
United States of America

NAPERVILLE, ILLINOIS


Home > North America > United States > Illinois
Elevation: 687 feet     Latitude: 41 49N     Longitude: 088 04W

WEATHER
 
SELECT A DAY
Number of Records: 196,638;   Date Range: 1/1/95 - 8/12/14
 
SHARE

PRINT THIS DATA

[ ← Previous Day ]
WEATHER ALMANAC - JANUARY 14, 2013
[ Next Day → ]
[ °C ]   °F
Weather ElementAverageHighLow
Temperature18.1 °F25 °F (2:51 pm)12 °F (3:51 am)
Dewpoint9.3 °F12 °F (6:51 pm)6.1 °F (2:51 am)
Humidity69.1 %80 % (3:51 am)53 % (3:51 pm)
Barometer30.43 in30.45 in (6:51 am)30.31 in (1:51 am)
Wind Speed6 mph11.5 mph (4:51 am)
Weather ElementAverage
Visibility10 mi
Wind DirectionSW (222.2 °)

Weather ElementTotal
Precipitation---
Heating Degree Days46.5 (Base 65)
Averaged from 23 records on January 14, 2013
WEATHER CONDITIONS BREAKOUT
WIND DIRECTION BREAKOUT
WEATHER BY HOUR - JANUARY 14, 2013
[ °C ]   °F
Local TimeTemperatureDewpointHumidityBarometerVisibilityWind DirectionWind SpeedGust SpeedPrecipitationEventsConditions
1:51 AM12.9 °F7.0 °F77 %30.31 in10.0 miWest (270°)10.4 mphScattered Clouds
2:51 AM12.9 °F6.1 °F74 %30.35 in10.0 miWest (260°)9.2 mphPartly Cloudy
3:51 AM12.0 °F7.0 °F80 %30.38 in10.0 miWSW (250°)10.4 mphPartly Cloudy
4:51 AM12.0 °F6.1 °F77 %30.38 in10.0 miWSW (250°)11.5 mphClear
5:51 AM12.0 °F6.1 °F77 %30.41 in10.0 miWest (270°)9.2 mphPartly Cloudy
6:51 AM12.0 °F6.1 °F77 %30.45 in10.0 miWest (270°)9.2 mphPartly Cloudy
7:51 AM12.0 °F6.1 °F77 %30.45 in10.0 miWNW (300°)9.2 mphPartly Cloudy
8:51 AM14.0 °F8.1 °F77 %30.45 in10.0 miWNW (300°)8.1 mphClear
9:51 AM17.1 °F9.0 °F71 %30.45 in10.0 miNW (310°)9.2 mphClear
10:51 AM19.0 °F9.0 °F65 %30.44 in10.0 miVariable4.6 mphPartly Cloudy
11:51 AM21.0 °F10.0 °F63 %30.43 in10.0 miNW (320°)5.8 mphMostly Cloudy
12:51 PM23.0 °F10.0 °F58 %30.43 in10.0 miWSW (250°)5.8 mphMostly Cloudy
1:51 PM24.1 °F10.9 °F57 %30.44 in10.0 miCalmMostly Cloudy
2:51 PM25.0 °F10.9 °F55 %30.45 in10.0 miCalmMostly Cloudy
3:51 PM25.0 °F10.0 °F53 %30.45 in10.0 miSW (220°)3.5 mphMostly Cloudy
4:51 PM23.0 °F10.9 °F60 %30.45 in10.0 miSSW (210°)3.5 mphPartly Cloudy
5:51 PM23.0 °F10.0 °F58 %30.44 in10.0 miCalmClear
6:51 PM21.0 °F12.0 °F68 %30.45 in10.0 miWest (260°)3.5 mphClear
7:51 PM21.0 °F12.0 °F68 %30.44 in10.0 miWest (260°)4.6 mphClear
8:51 PM19.0 °F10.9 °F71 %30.43 in10.0 miWest (260°)4.6 mphClear
9:51 PM19.0 °F12.0 °F74 %30.43 in10.0 miWest (280°)4.6 mphClear
10:51 PM18.0 °F12.0 °F78 %30.43 in10.0 miWNW (290°)4.6 mphClear
11:51 PM19.0 °F12.0 °F74 %30.44 in10.0 miWest (280°)5.8 mphPartly Cloudy
Hourly data recorded from KORD, located miles away from Naperville, Illinois







STORIES FROM OUR PARTNERS